Albuquerque, NM

8:54 PM MDT on October 18, 2017 (GMT -0600)
Albuquerque International Sunport

Weather History for KABQ - December, 2012

Change the Weather History Date:

Sunday, December 9, 2012

  Actual Average Record
Temperature  
Mean Temperature 39 °F 37 °F  
Max Temperature 54 °F 47 °F 64 °F (1939)
Min Temperature 24 °F 27 °F 2 °F (1916)
Degree Days  
Heating Degree Days 26 28  
Month to date heating degree days 159 244  
Since 1 July heating degree days 807 1111  
Cooling Degree Days 0 0  
Month to date cooling degree days 0 0  
Year to date cooling degree days 1768 1322  
Moisture  
Dew Point 11 °F    
Average Humidity 38    
Maximum Humidity 56    
Minimum Humidity 19    
Precipitation  
Precipitation 0.00 in 0.01 in 0.26 in (1943)
Month to date precipitation 0.00 0.15  
Year to date precipitation 5.34 9.10  
Snow  
Snow 0.00 in - - ()
Month to date snowfall 0.0  
Since 1 July snowfall 0.0  
Snow Depth 0.00 in    
Sea Level Pressure  
Sea Level Pressure 29.96 in    
Wind  
Wind Speed 12 mph (West)    
Max Wind Speed 33 mph    
Max Gust Speed 39 mph    
Visibility 10 miles    
Events      
T = Trace of Precipitation, MM = Missing Value Source: NWS Daily Summary

Daily Weather History Graph

Daily Weather History Graph

Search for Another Location

Airport or City:

Trip Planner

Search our weather history database for the weather conditions in past years. The results will help you decide how hot, cold, wet, or windy it might be!

Date:

Astronomy

Dec. 09, 2012 Rise Set
Actual Time 7:03 AM MST 4:54 PM MST
Civil Twilight 6:35 AM MST 5:22 PM MST
Nautical Twilight 6:03 AM MST 5:54 PM MST
Astronomical Twilight 5:32 AM MST 6:25 PM MST
Moon 2:46 AM MST (12/9) 1:57 PM MST (12/9)
Length of Visible Light 10h 47m
Length of Day
9h 51m
Waning Crescent, 18% of the Moon is Illuminated
Dec 9
Waning Crescent
Dec 13
New
Dec 19
First Quarter
Dec 28
Full
Jan 4
Last Quarter

Hourly Weather History & Observations

Time (MST) Temp. Windchill Dew Point Humidity Pressure Visibility Wind Dir Wind Speed Gust Speed Precip Events Conditions
12:52 AM 37.0 °F 31.0 °F 10.0 °F 33% 29.86 in 10.0 mi SSE 8.1 mph - N/A   Scattered Clouds
1:52 AM 36.0 °F 29.6 °F 12.0 °F 37% 29.84 in 10.0 mi SSW 8.1 mph - N/A   Scattered Clouds
2:52 AM 37.0 °F 30.4 °F 15.1 °F 41% 29.83 in 10.0 mi SE 9.2 mph - N/A   Mostly Cloudy
3:52 AM 37.0 °F 32.4 °F 17.1 °F 44% 29.83 in 10.0 mi SE 5.8 mph - N/A   Partly Cloudy
4:52 AM 36.0 °F 28.5 °F 17.1 °F 46% 29.83 in 10.0 mi SSE 10.4 mph - N/A   Scattered Clouds
5:52 AM 34.0 °F 26.0 °F 18.0 °F 52% 29.86 in 10.0 mi SSE 10.4 mph - N/A   Scattered Clouds
6:52 AM 37.9 °F 29.6 °F 19.9 °F 48% 29.85 in 10.0 mi South 13.8 mph - N/A   Scattered Clouds
7:52 AM 37.9 °F 32.7 °F 21.0 °F 51% 29.86 in 10.0 mi SSW 6.9 mph - N/A   Scattered Clouds
8:52 AM 39.9 °F 34.5 °F 21.0 °F 47% 29.88 in 10.0 mi SSE 8.1 mph - N/A   Scattered Clouds
9:52 AM 46.9 °F - 19.9 °F 34% 29.88 in 10.0 mi South 10.4 mph - N/A   Scattered Clouds
10:52 AM 51.1 °F - 19.0 °F 28% 29.85 in 10.0 mi SW 12.7 mph - N/A   Scattered Clouds
11:52 AM 51.1 °F - 18.0 °F 27% 29.80 in 10.0 mi WSW 16.1 mph 31.1 mph N/A   Mostly Cloudy
12:52 PM 52.0 °F - 17.1 °F 25% 29.76 in 10.0 mi WSW 15.0 mph 26.5 mph N/A   Mostly Cloudy
1:15 PM 50.0 °F - 15.8 °F 26% 29.84 in 10.0 mi NW 18.4 mph - N/A   Mostly Cloudy
1:52 PM 43.0 °F 33.8 °F 18.0 °F 37% 29.86 in 10.0 mi NNW 23.0 mph 32.2 mph N/A   Mostly Cloudy
2:52 PM 35.1 °F 23.3 °F 21.0 °F 57% 29.98 in 9.0 mi NNW 23.0 mph 34.5 mph N/A   Overcast
3:52 PM 33.1 °F 21.9 °F 15.1 °F 48% 30.04 in 10.0 mi North 18.4 mph 28.8 mph N/A   Overcast
4:52 PM 33.1 °F 24.4 °F 12.0 °F 42% 30.08 in 10.0 mi NNW 11.5 mph - N/A   Mostly Cloudy
5:52 PM 33.1 °F 24.9 °F 10.9 °F 40% 30.12 in 10.0 mi NW 10.4 mph - N/A   Mostly Cloudy
6:52 PM 30.9 °F 21.2 °F 1.0 °F 28% 30.16 in 10.0 mi NW 12.7 mph 21.9 mph N/A   Mostly Cloudy
7:52 PM 30.0 °F 19.5 °F -5.1 °F 22% 30.20 in 10.0 mi NW 13.8 mph - N/A   Scattered Clouds
8:52 PM 28.0 °F 15.7 °F -9.0 °F 20% 30.22 in 10.0 mi NW 17.3 mph - N/A   Clear
9:52 PM 27.0 °F 18.7 °F -8.0 °F 22% 30.22 in 10.0 mi NNW 8.1 mph - N/A   Clear
10:52 PM 25.0 °F 17.1 °F -8.0 °F 23% 30.21 in 10.0 mi NNW 6.9 mph - N/A   Clear
11:52 PM 24.1 °F 17.0 °F -8.0 °F 24% 30.20 in 10.0 mi North 5.8 mph - N/A   Clear